Theta_e
346 344 343 342 346 343 341 342 341 342 344 340 341 342 340 339 339 339 338 336 336 335 333 332 330 328 321 319 321 326 329 330 331 332 333 334 333 333 334 335 335 335 335
351 349 348 349 348 348 346 344 344 344 344 344 345 346 346 346 346 346 346 347 346 345 343 339 337 337 335 327 319 318 323 331 332 333 335 334 334 333 333 334 334 335 336
351 349 351 347 346 345 345 345 347 348 347 346 346 346 346 348 348 347 347 347 348 346 344 343 342 340 339 338 334 323 318 321 331 333 334 337 337 335 334 333 333 334 334
350 351 350 350 350 350 350 351 351 350 351 346 347 349 347 348 348 344 344 343 338 350 349 349 348 348 341 338 338 336 329 321 319 327 332 334 336 337 336 338 337 337 336
351 350 349 351 350 349 351 348 348 349 350 349 346 343 342 343 340 338 337 338 340 342 348 349 348 349 348 346 341 337 337 335 328 320 321 331 334 338 336 338 339 341 341
342 336 344 345 347 347 346 346 349 348 346 345 341 340 336 335 334 335 336 335 333 333 337 338 341 346 347 347 347 345 339 338 337 334 323 321 329 333 338 337 339 340 341
347 341 334 331 345 347 348 344 343 339 335 333 331 330 329 329 329 327 328 330 332 336 336 332 335 338 341 341 346 347 345 342 339 336 333 323 325 331 338 337 338 339 339
346 349 348 347 342 336 334 330 333 335 332 331 332 329 328 325 324 324 326 327 326 327 327 330 330 331 338 340 340 346 346 345 343 339 336 329 325 331 338 339 340 340 342
349 340 342 339 330 330 328 326 331 333 334 329 326 330 329 327 327 326 325 324 323 323 324 325 327 330 332 335 338 338 344 345 344 344 339 334 331 332 339 340 342 342 343
331 330 331 329 330 330 329 327 327 328 330 328 326 327 324 325 329 327 326 326 327 327 326 326 325 326 327 328 329 332 334 335 343 343 343 340 337 336 334 340 340 342 344
331 330 330 331 332 332 331 333 332 332 333 336 333 330 328 327 326 328 328 325 324 327 326 325 325 327 330 333 334 332 332 339 342 343 343 342 341 341 340 342 342 343 343
329 328 329 330 330 330 330 329 331 331 333 334 335 333 332 330 327 326 325 324 324 324 324 325 325 323 325 328 328 327 328 334 337 339 341 342 342 342 341 339 338 342 344
324 325 324 324 326 326 326 327 326 326 326 329 331 332 333 333 332 331 329 327 326 325 324 324 323 324 324 324 330 329 327 327 337 338 339 341 340 339 337 337 338 342 344
322 322 321 321 322 323 323 323 323 323 323 323 323 324 324 324 326 329 331 330 329 326 325 326 325 323 322 326 325 330 330 331 334 336 334 333 338 337 334 336 339 342 342
321 321 320 319 319 319 320 321 321 321 322 323 323 323 323 323 323 323 325 327 328 330 328 327 328 326 324 325 328 328 326 326 335 334 332 337 337 337 337 335 339 341 341
320 320 320 319 319 320 320 320 320 320 320 320 320 320 319 319 319 319 320 322 324 327 329 327 327 328 326 326 325 326 329 333 334 335 335 333 333 335 336 335 338 340 337
319 319 319 319 319 319 319 319 319 318 318 318 317 318 318 317 317 316 316 317 319 321 324 325 326 328 327 327 328 329 328 328 330 335 334 331 334 333 333 333 338 338 333
318 318 318 318 318 318 317 317 316 317 317 316 316 315 316 316 315 315 314 314 315 317 320 322 324 325 326 326 328 329 325 324 326 329 333 333 334 333 333 333 337 337 332
317 317 317 317 317 316 316 315 314 315 315 314 313 312 312 312 313 312 313 312 312 313 314 317 320 322 326 326 326 327 325 328 328 329 330 333 331 333 333 333 337 334 332
315 315 315 315 315 315 314 314 313 313 312 311 310 310 309 309 310 311 311 310 311 311 312 313 314 318 323 325 326 326 326 325 329 329 332 333 333 333 334 334 335 332 329
313 313 313 313 313 313 312 312 311 310 310 309 309 309 308 308 308 308 308 308 307 308 308 308 310 313 316 323 325 325 326 327 329 329 330 331 331 334 334 333 331 330 329
311 312 312 313 312 312 311 311 311 310 308 307 307 307 307 307 306 306 307 307 307 308 308 308 309 310 313 315 322 325 326 328 328 327 330 330 331 330 331 330 330 329 330
310 311 311 311 310 310 311 310 309 308 307 306 306 305 305 306 306 306 306 306 306 306 306 306 308 309 310 313 317 323 325 326 327 328 330 331 330 329 328 329 330 330 331
308 309 310 309 309 310 309 308 307 308 306 305 306 306 306 305 306 306 305 306 305 305 306 308 309 309 310 312 314 320 323 324 325 325 328 330 330 324 328 330 329 330 329
305 307 307 307 308 309 308 307 308 306 305 306 306 305 304 304 304 304 305 305 305 305 305 306 307 307 308 310 315 319 323 324 324 325 328 325 319 316 317 317 321 327 327
304 306 306 307 307 307 307 307 307 307 306 305 304 303 303 303 303 304 304 304 304 305 306 307 307 312 314 317 318 320 323 324 325 327 328 324 318 316 313 310 315 318 318
Wind_Speed
20 19 19 20 23 18 19 16 18 15 16 16 16 16 18 19 19 20 20 23 25 26 28 29 27 26 27 27 27 26 27 26 25 24 25 26 23 24 22 22 23 22 22
21 20 16 12 10 10 13 19 19 16 19 19 20 22 23 21 21 22 22 19 23 28 29 30 29 30 31 30 32 32 31 29 27 28 26 28 26 25 24 22 23 24 24
15 17 16 16 14 14 14 13 11 10 14 15 21 25 23 14 24 26 21 19 24 31 30 28 33 36 33 31 32 35 34 34 32 31 30 29 28 27 25 24 22 24 25
15 16 13 11 10 9 7 5 5 10 17 10 10 15 17 12 18 25 24 28 31 32 27 27 28 31 33 36 35 33 35 36 36 36 35 34 31 31 28 23 22 22 23
19 7 11 11 11 7 11 6 6 10 14 18 17 19 21 20 22 27 28 23 23 23 26 27 30 30 32 32 33 34 34 36 39 39 38 37 35 32 32 27 26 21 20
13 10 18 14 13 10 3 4 5 3 10 15 20 24 26 28 28 29 31 32 33 32 31 32 30 31 32 32 32 32 34 38 39 40 41 37 36 35 33 32 30 24 19
11 26 19 11 18 3 2 4 1 3 10 15 20 21 23 24 26 30 31 34 34 31 30 35 35 34 32 30 31 29 29 34 39 37 39 39 37 35 34 34 33 36 16
13 8 5 3 6 2 3 3 4 7 9 11 11 14 4 14 25 28 27 26 28 29 33 28 28 26 26 21 24 25 29 27 28 36 39 37 37 36 34 33 34 35 29
8 10 8 5 1 1 2 4 6 7 8 12 14 10 4 6 10 22 27 30 36 35 36 34 32 28 29 29 28 28 26 28 30 30 35 38 33 36 34 33 33 35 33
6 4 3 3 2 4 5 6 10 11 11 15 20 20 22 25 8 12 22 25 28 33 30 32 33 30 30 32 31 35 34 33 32 32 29 32 33 33 34 33 34 36 34
5 3 3 3 2 5 6 9 12 13 16 16 20 22 23 26 27 10 12 14 25 25 26 26 31 24 22 25 27 30 25 26 32 33 29 24 25 30 29 30 31 35 33
6 2 1 1 3 7 12 14 15 17 20 22 25 26 25 20 17 18 14 14 17 29 34 32 24 31 29 26 27 30 29 26 29 24 26 23 22 27 28 30 30 32 31
7 8 7 6 9 11 13 17 20 22 23 24 25 25 26 28 28 29 27 18 14 29 31 33 32 33 24 30 24 23 30 30 21 25 23 22 24 24 24 29 30 30 29
8 9 13 14 14 14 15 16 18 20 22 25 26 29 28 28 28 28 28 22 14 15 29 30 35 42 41 26 30 20 24 30 20 17 23 22 24 24 20 24 27 28 25
9 9 14 18 19 20 20 19 20 23 24 23 24 27 28 27 28 29 29 27 22 15 14 23 24 34 35 29 24 25 29 24 23 21 19 19 21 24 24 24 24 24 25
13 13 14 16 17 19 20 20 22 22 22 22 22 25 26 26 27 28 28 28 27 24 16 24 27 27 25 27 32 30 23 19 20 23 15 20 24 25 23 21 23 24 21
15 16 17 18 19 20 21 22 23 23 24 25 26 25 25 26 25 25 27 27 28 27 17 26 27 27 29 28 24 22 24 20 22 22 18 18 18 18 21 20 20 21 20
16 17 17 19 19 21 22 23 24 25 25 25 25 27 28 27 27 26 26 26 27 27 28 18 28 29 32 33 27 24 25 29 26 26 22 14 15 20 24 21 21 22 19
18 19 19 20 21 23 23 23 24 24 23 21 22 23 24 26 27 24 24 25 27 28 29 29 27 29 27 28 32 30 27 21 23 25 27 26 27 23 23 21 22 21 18
17 19 20 20 22 22 21 21 22 24 23 22 25 28 30 31 31 28 25 25 26 26 26 27 27 26 26 27 24 22 21 23 21 20 24 17 22 23 24 20 21 21 19
18 19 21 21 20 21 21 23 26 23 25 26 27 29 32 33 33 35 33 30 31 32 30 27 26 25 24 24 20 23 20 22 18 19 21 20 23 21 18 18 21 22 20
19 20 20 20 18 20 25 28 30 33 31 29 30 32 34 33 35 36 36 38 38 33 31 27 25 21 27 29 29 19 18 10 3 17 15 19 18 15 17 23 26 21 19
21 21 21 18 21 25 25 29 36 37 28 27 32 34 33 30 32 34 32 35 37 37 42 38 34 32 30 30 28 25 19 12 12 18 12 10 14 15 20 22 22 20 20
22 21 18 22 23 24 28 33 35 34 29 31 31 30 30 32 30 32 32 31 32 33 34 34 34 37 37 37 35 29 25 20 19 24 20 4 12 12 21 21 18 21 17
23 21 20 23 23 24 31 34 33 27 24 28 27 28 32 35 37 36 33 30 31 34 35 37 40 42 43 41 42 30 23 14 10 19 23 9 9 15 16 20 20 19 18
24 21 23 22 26 27 31 33 30 27 25 25 30 32 35 36 39 37 35 29 27 32 32 30 31 33 38 39 40 39 26 16 14 6 18 10 19 13 5 11 19 22 22
Wind_Direction
199 200 205 208 205 199 216 204 219 232 220 229 240 239 245 251 258 266 273 278 283 282 279 278 277 274 266 259 257 257 256 256 257 258 259 260 259 259 260 264 267 266 267
200 195 207 219 235 228 220 210 214 221 232 239 243 244 240 240 251 254 258 271 275 280 283 278 272 272 273 268 262 258 255 254 253 254 254 256 256 258 257 260 265 267 267
214 201 199 202 216 225 239 253 265 281 282 276 263 253 257 271 274 259 258 265 279 272 267 273 277 275 273 269 268 263 260 258 255 254 252 253 252 251 252 254 259 266 271
218 216 219 218 219 211 184 189 224 250 276 298 280 293 291 276 254 276 274 274 271 252 265 270 274 282 279 271 267 269 268 263 259 258 257 255 254 254 248 244 250 261 270
205 242 230 243 228 215 215 217 258 265 296 313 311 305 310 321 315 309 307 303 298 296 282 274 276 278 279 280 278 270 269 270 266 261 258 257 257 257 250 248 245 250 263
241 292 278 322 311 290 189 299 225 284 294 297 311 309 308 306 303 299 298 294 292 294 292 286 282 281 277 274 274 274 269 268 269 266 261 255 256 255 251 249 253 244 266
151 184 223 190 214 238 33 154 209 326 321 317 327 318 311 304 300 294 290 292 284 281 276 283 278 272 270 275 277 274 274 272 269 269 264 258 253 253 249 249 251 256 235
181 197 180 167 123 157 38 21 285 276 275 295 304 317 313 306 297 296 293 304 308 308 308 307 304 303 296 299 298 287 277 278 280 273 267 265 256 253 249 249 251 256 249
160 140 138 185 85 298 312 309 313 250 258 270 282 276 298 284 294 297 295 291 292 296 299 300 297 293 295 298 293 286 287 276 275 278 271 267 263 255 252 248 249 254 248
127 94 162 197 206 217 241 288 302 301 290 280 280 268 277 279 284 296 286 285 283 279 281 283 284 288 290 288 282 280 281 274 269 268 273 275 270 264 255 250 249 255 257
155 183 170 207 266 294 289 287 291 290 285 285 282 283 278 276 274 274 288 293 287 280 287 296 289 293 297 294 281 274 293 274 279 277 272 270 264 267 266 257 253 255 258
200 162 90 278 297 293 298 297 293 291 287 281 275 274 276 278 281 283 282 281 274 273 270 267 284 292 291 290 291 288 292 306 264 251 273 271 267 266 268 264 260 259 257
8 11 332 309 292 289 284 283 285 281 284 284 282 282 281 280 282 283 287 287 285 281 275 274 277 268 289 295 290 295 296 294 285 277 262 273 282 276 276 265 261 260 257
314 312 316 304 302 297 295 295 289 286 285 281 283 283 289 287 286 286 287 291 288 283 278 272 274 282 276 280 293 303 301 289 275 273 276 276 278 282 285 276 262 257 255
298 296 286 291 294 297 293 291 291 287 283 285 282 281 280 280 281 282 284 289 283 283 277 281 286 283 289 290 302 297 299 293 288 268 270 268 274 274 279 285 267 248 245
288 292 296 298 301 296 291 289 283 282 284 286 290 288 287 288 287 288 291 292 290 289 286 280 276 283 277 276 283 293 303 308 292 278 282 283 275 270 281 278 268 243 236
299 298 295 293 292 293 288 285 284 285 281 279 280 280 282 283 282 283 285 288 286 288 288 287 287 288 281 277 275 281 282 298 293 273 278 283 278 269 272 269 258 234 232
292 293 296 292 295 293 292 288 286 279 279 280 283 282 282 281 277 278 277 279 284 292 293 291 289 281 276 281 286 265 278 286 282 274 281 292 275 276 265 264 247 230 228
298 295 296 297 297 293 292 288 283 282 286 295 300 302 301 301 294 292 286 282 284 285 288 296 296 290 283 275 266 269 281 276 277 274 271 271 270 261 253 256 232 219 215
303 304 299 297 290 287 288 292 299 299 298 300 302 298 292 288 285 286 285 283 282 282 285 287 287 300 285 267 269 268 261 267 262 260 261 269 262 250 246 242 221 206 204
302 296 294 290 290 294 292 293 301 298 297 297 296 292 288 283 281 281 278 276 275 276 274 278 282 286 290 288 249 249 262 267 257 258 262 258 257 253 245 215 206 202 202
302 295 290 288 296 298 291 295 296 300 299 297 292 289 288 284 282 279 275 272 267 263 267 268 269 268 273 276 289 256 252 252 250 268 243 243 244 248 222 198 194 193 188
306 296 293 291 294 291 293 298 299 301 290 289 288 287 285 280 283 281 275 273 268 264 265 263 262 261 263 264 271 282 267 268 267 265 247 199 213 201 196 189 182 177 171
304 299 296 298 292 291 296 301 301 297 292 289 286 287 287 289 287 284 279 273 269 267 267 263 258 257 254 257 253 259 266 268 274 274 256 174 176 132 173 173 172 174 168
304 303 301 294 293 298 303 304 303 295 290 287 287 291 290 289 284 287 281 275 271 269 268 267 266 265 266 262 250 248 247 245 257 259 250 161 137 108 131 138 147 162 168
293 295 298 295 299 299 304 296 297 290 286 289 294 291 288 283 283 284 282 270 269 272 269 266 267 266 266 257 242 237 231 230 234 254 231 133 152 135 99 92 138 148 150